Time,TemperatureF,DewpointF,PressureIn,WindDirection,WindDirectionDegrees,WindSpeedMPH,WindSpeedGustMPH,Humidity,HourlyPrecipIn,Conditions,Clouds,dailyrainin,SoftwareType,DateUTC
2013-02-12 00:01:00,48.0,40.1,30.06,East,90,4.0,8.0,74,0.00,,,0.00,meteohub,2013-02-12 06:01:00,
2013-02-12 00:06:00,48.0,40.1,30.06,East,90,4.0,8.0,74,0.00,,,0.00,meteohub,2013-02-12 06:06:00,
2013-02-12 00:11:00,47.8,39.9,30.05,SE,135,5.0,8.0,74,0.00,,,0.00,meteohub,2013-02-12 06:11:00,
2013-02-12 00:16:00,47.8,39.9,30.05,NE,45,7.0,7.0,74,0.00,,,0.00,meteohub,2013-02-12 06:16:00,
2013-02-12 00:21:00,47.8,39.9,30.05,SE,135,5.0,8.0,74,0.00,,,0.00,meteohub,2013-02-12 06:21:00,
2013-02-12 00:26:00,47.8,40.3,30.05,NE,45,5.0,8.0,75,0.00,,,0.00,meteohub,2013-02-12 06:26:00,
2013-02-12 00:31:00,47.8,40.3,30.05,SE,135,5.0,8.0,75,0.00,,,0.00,meteohub,2013-02-12 06:31:00,
2013-02-12 00:36:00,47.7,40.1,30.04,East,90,4.0,8.0,75,0.00,,,0.00,meteohub,2013-02-12 06:36:00,
2013-02-12 00:41:00,47.7,40.1,30.04,East,90,6.0,7.0,75,0.00,,,0.00,meteohub,2013-02-12 06:41:00,
2013-02-12 00:46:00,47.7,40.1,30.03,SE,135,4.0,7.0,75,0.00,,,0.00,meteohub,2013-02-12 06:46:00,
2013-02-12 00:51:00,47.7,40.1,30.03,East,90,6.0,7.0,75,0.00,,,0.00,meteohub,2013-02-12 06:51:00,
2013-02-12 00:56:00,47.7,40.5,30.02,East,90,4.0,7.0,76,0.00,,,0.00,meteohub,2013-02-12 06:56:00,
2013-02-12 01:01:00,47.7,40.5,30.03,ENE,68,3.0,10.0,76,0.00,,,0.00,meteohub,2013-02-12 07:01:00,
2013-02-12 01:06:00,47.7,40.5,30.06,South,180,3.0,10.0,76,0.00,,,0.00,meteohub,2013-02-12 07:06:00,
2013-02-12 01:11:00,47.8,40.6,30.06,SE,135,3.0,10.0,76,0.00,,,0.00,meteohub,2013-02-12 07:11:00,
2013-02-12 01:16:00,47.8,40.6,30.00,East,90,8.0,8.0,76,0.00,,,0.00,meteohub,2013-02-12 07:16:00,
2013-02-12 01:21:00,47.8,40.6,30.00,South,180,8.0,8.0,76,0.00,,,0.00,meteohub,2013-02-12 07:21:00,
2013-02-12 01:26:00,47.7,40.8,30.00,SE,135,8.0,12.0,77,0.00,,,0.00,meteohub,2013-02-12 07:26:00,
2013-02-12 01:31:00,47.7,40.8,30.00,SW,225,6.0,12.0,77,0.00,,,0.00,meteohub,2013-02-12 07:31:00,
2013-02-12 01:36:00,47.7,40.8,30.03,NNW,338,3.0,12.0,77,0.00,,,0.00,meteohub,2013-02-12 07:36:00,
2013-02-12 01:41:00,47.8,41.0,30.05,South,180,3.0,12.0,77,0.00,,,0.00,meteohub,2013-02-12 07:41:00,
2013-02-12 01:46:00,47.8,41.0,30.06,SE,135,4.0,9.0,77,0.00,,,0.00,meteohub,2013-02-12 07:46:00,
2013-02-12 01:51:00,47.8,41.0,30.06,SW,225,1.0,4.0,77,0.00,,,0.00,meteohub,2013-02-12 07:51:00,
2013-02-12 01:56:00,48.0,41.5,30.07,NW,315,2.0,4.0,78,0.00,,,0.00,meteohub,2013-02-12 07:56:00,
2013-02-12 02:01:00,48.4,41.5,30.07,North,0,3.0,4.0,77,0.00,,,0.00,meteohub,2013-02-12 08:01:00,
2013-02-12 02:06:00,48.4,41.5,30.07,North,0,3.0,3.0,77,0.00,,,0.00,meteohub,2013-02-12 08:06:00,
2013-02-12 02:11:00,48.6,41.4,30.06,NE,45,4.0,4.0,76,0.00,,,0.00,meteohub,2013-02-12 08:11:00,
2013-02-12 02:16:00,48.6,41.7,30.06,NE,45,2.0,4.0,77,0.00,,,0.00,meteohub,2013-02-12 08:16:00,
2013-02-12 02:21:00,48.7,41.9,30.06,North,0,2.0,4.0,77,0.00,,,0.00,meteohub,2013-02-12 08:21:00,
2013-02-12 02:26:00,48.7,41.9,30.06,North,0,2.0,4.0,77,0.00,,,0.00,meteohub,2013-02-12 08:26:00,
2013-02-12 02:31:00,48.7,41.9,30.06,SE,135,0.0,4.0,77,0.00,,,0.00,meteohub,2013-02-12 08:31:00,
2013-02-12 02:36:00,48.7,41.5,30.05,East,90,2.0,3.0,76,0.00,,,0.00,meteohub,2013-02-12 08:36:00,
2013-02-12 02:41:00,48.6,41.7,30.04,South,180,2.0,4.0,77,0.00,,,0.00,meteohub,2013-02-12 08:41:00,
2013-02-12 02:46:00,48.6,41.7,30.05,East,90,2.0,4.0,77,0.00,,,0.00,meteohub,2013-02-12 08:46:00,
2013-02-12 02:51:00,48.4,41.5,30.05,East,90,2.0,5.0,77,0.00,,,0.00,meteohub,2013-02-12 08:51:00,
2013-02-12 02:56:00,48.4,41.9,30.04,East,90,4.0,8.0,78,0.00,,,0.00,meteohub,2013-02-12 08:56:00,
2013-02-12 03:01:00,48.2,42.1,30.04,SE,135,4.0,8.0,79,0.00,,,0.00,meteohub,2013-02-12 09:01:00,
2013-02-12 03:06:00,48.2,42.1,30.03,NE,45,4.0,8.0,79,0.00,,,0.00,meteohub,2013-02-12 09:06:00,
2013-02-12 03:11:00,48.2,42.3,30.03,NE,45,4.0,6.0,80,0.00,,,0.00,meteohub,2013-02-12 09:11:00,
2013-02-12 03:16:00,48.2,42.6,30.02,SE,135,3.0,6.0,81,0.00,,,0.00,meteohub,2013-02-12 09:16:00,
2013-02-12 03:21:00,48.2,42.6,30.02,East,90,3.0,4.0,81,0.00,,,0.00,meteohub,2013-02-12 09:21:00,
2013-02-12 03:26:00,48.0,42.8,30.03,SE,135,2.0,4.0,82,0.00,,,0.00,meteohub,2013-02-12 09:26:00,
2013-02-12 03:31:00,48.0,42.8,30.02,East,90,2.0,4.0,82,0.00,,,0.00,meteohub,2013-02-12 09:31:00,
2013-02-12 03:36:00,48.0,43.2,30.02,NE,45,4.0,4.0,83,0.00,,,0.00,meteohub,2013-02-12 09:36:00,
2013-02-12 03:41:00,48.0,43.2,30.02,NE,45,2.0,4.0,83,0.00,,,0.00,meteohub,2013-02-12 09:41:00,
2013-02-12 03:47:00,47.8,43.2,30.01,ENE,68,7.0,7.0,84,0.00,,,0.00,meteohub,2013-02-12 09:47:00,
2013-02-12 03:52:00,47.7,43.3,30.00,North,0,4.0,7.0,85,0.00,,,0.00,meteohub,2013-02-12 09:52:00,
2013-02-12 03:57:00,47.5,43.5,30.01,NE,45,4.0,7.0,86,0.01,,,0.01,meteohub,2013-02-12 09:57:00,
2013-02-12 04:02:00,47.5,43.5,30.00,East,90,4.0,7.0,86,0.01,,,0.01,meteohub,2013-02-12 10:02:00,
2013-02-12 04:07:00,47.5,43.5,29.98,East,90,4.0,6.0,86,0.01,,,0.01,meteohub,2013-02-12 10:07:00,
2013-02-12 04:12:00,47.1,44.1,29.98,SE,135,8.0,8.0,89,0.01,,,0.01,meteohub,2013-02-12 10:12:00,
2013-02-12 04:17:00,47.1,44.4,29.98,NE,45,4.0,10.0,90,0.01,,,0.01,meteohub,2013-02-12 10:17:00,
2013-02-12 04:22:00,47.1,44.4,29.99,East,90,8.0,10.0,90,0.01,,,0.01,meteohub,2013-02-12 10:22:00,
2013-02-12 04:27:00,47.1,44.4,29.99,East,90,5.0,8.0,90,0.01,,,0.01,meteohub,2013-02-12 10:27:00,
2013-02-12 04:32:00,47.1,44.4,30.00,South,180,3.0,8.0,90,0.01,,,0.01,meteohub,2013-02-12 10:32:00,
2013-02-12 04:37:00,47.1,44.4,29.98,East,90,4.0,8.0,90,0.01,,,0.01,meteohub,2013-02-12 10:37:00,
2013-02-12 04:42:00,47.1,44.6,29.97,South,180,8.0,9.0,91,0.01,,,0.01,meteohub,2013-02-12 10:42:00,
2013-02-12 04:47:00,46.8,44.6,29.97,NE,45,9.0,9.0,92,0.01,,,0.01,meteohub,2013-02-12 10:47:00,
2013-02-12 04:52:00,46.6,44.4,29.96,East,90,9.0,9.0,92,0.02,,,0.02,meteohub,2013-02-12 10:52:00,
2013-02-12 04:57:00,46.4,44.4,29.96,East,90,10.0,14.0,93,0.01,,,0.02,meteohub,2013-02-12 10:57:00,
2013-02-12 05:02:00,46.4,44.4,29.96,East,90,10.0,14.0,93,0.01,,,0.02,meteohub,2013-02-12 11:02:00,
2013-02-12 05:07:00,46.4,44.4,29.95,East,90,10.0,14.0,93,0.01,,,0.02,meteohub,2013-02-12 11:07:00,
2013-02-12 05:12:00,46.0,45.0,29.94,East,90,10.0,10.0,96,0.01,,,0.02,meteohub,2013-02-12 11:12:00,
2013-02-12 05:17:00,46.0,45.0,29.95,NE,45,12.0,12.0,96,0.02,,,0.04,meteohub,2013-02-12 11:17:00,
2013-02-12 05:22:00,46.0,45.0,29.95,NE,45,12.0,12.0,96,0.02,,,0.04,meteohub,2013-02-12 11:22:00,
2013-02-12 05:42:00,46.2,45.5,29.99,West,270,2.0,-999.0,97,0.02,,,0.04,meteohub,2013-02-12 11:42:00,
2013-02-12 05:47:00,46.2,45.5,29.97,West,270,2.0,2.0,97,0.04,,,0.06,meteohub,2013-02-12 11:47:00,
2013-02-12 05:52:00,46.2,45.5,29.97,West,270,2.0,2.0,97,0.04,,,0.06,meteohub,2013-02-12 11:52:00,
2013-02-12 06:55:00,45.5,44.8,29.94,East,90,4.0,-999.0,97,0.00,,,0.06,meteohub,2013-02-12 12:55:00,
2013-02-12 07:00:00,45.5,44.8,29.94,East,90,4.0,-999.0,97,0.00,,,0.19,meteohub,2013-02-12 13:00:00,
2013-02-12 07:05:00,45.5,44.8,29.94,NE,45,5.0,5.0,97,0.00,,,0.19,meteohub,2013-02-12 13:05:00,
2013-02-12 07:10:00,45.5,44.8,29.94,East,90,4.0,5.0,97,0.00,,,0.19,meteohub,2013-02-12 13:10:00,
2013-02-12 07:15:00,45.5,44.8,29.93,East,90,4.0,5.0,97,0.00,,,0.19,meteohub,2013-02-12 13:15:00,
2013-02-12 07:20:00,45.5,44.8,29.93,East,90,4.0,5.0,97,0.00,,,0.19,meteohub,2013-02-12 13:20:00,
2013-02-12 07:30:00,45.7,45.0,29.94,East,90,8.0,8.0,97,0.00,,,0.19,meteohub,2013-02-12 13:30:00,
2013-02-12 07:35:00,45.7,45.0,29.93,East,90,7.0,7.0,97,0.01,,,0.20,meteohub,2013-02-12 13:35:00,
2013-02-12 07:40:00,45.7,45.0,29.93,NE,45,4.0,8.0,97,0.01,,,0.20,meteohub,2013-02-12 13:40:00,
2013-02-12 07:45:00,45.7,45.0,29.93,NE,45,4.0,8.0,97,0.01,,,0.20,meteohub,2013-02-12 13:45:00,
2013-02-12 07:50:00,45.9,45.1,29.94,ENE,68,4.0,7.0,97,0.01,,,0.20,meteohub,2013-02-12 13:50:00,
2013-02-12 07:55:00,45.9,45.1,29.93,NE,45,7.0,8.0,97,0.01,,,0.20,meteohub,2013-02-12 13:55:00,
2013-02-12 08:00:00,45.9,45.1,29.93,East,90,11.0,11.0,97,0.01,,,0.20,meteohub,2013-02-12 14:00:00,
2013-02-12 08:05:00,45.9,45.1,29.93,NE,45,4.0,11.0,97,0.01,,,0.20,meteohub,2013-02-12 14:05:00,
2013-02-12 08:10:00,45.9,45.1,29.94,ENE,68,5.0,11.0,97,0.02,,,0.21,meteohub,2013-02-12 14:10:00,
2013-02-12 08:15:00,45.9,45.1,29.94,East,90,4.0,11.0,97,0.02,,,0.21,meteohub,2013-02-12 14:15:00,
2013-02-12 08:20:00,46.0,45.3,29.98,NW,315,7.0,7.0,97,0.02,,,0.22,meteohub,2013-02-12 14:20:00,
2013-02-12 08:25:00,46.0,45.3,29.97,NW,315,7.0,10.0,97,0.02,,,0.22,meteohub,2013-02-12 14:25:00,
2013-02-12 08:30:00,46.0,45.3,29.96,ENE,68,8.0,10.0,97,0.02,,,0.22,meteohub,2013-02-12 14:30:00,
2013-02-12 08:35:00,46.0,45.3,29.95,ENE,68,8.0,10.0,97,0.02,,,0.22,meteohub,2013-02-12 14:35:00,
2013-02-12 08:40:00,45.9,45.1,29.96,North,0,3.0,8.0,97,0.05,,,0.25,meteohub,2013-02-12 14:40:00,
2013-02-12 08:45:00,46.0,45.3,29.97,North,0,2.0,8.0,97,0.05,,,0.25,meteohub,2013-02-12 14:45:00,
2013-02-12 08:50:00,46.0,45.3,29.97,NE,45,2.0,8.0,97,0.05,,,0.25,meteohub,2013-02-12 14:50:00,
2013-02-12 08:55:00,46.2,45.5,29.97,NE,45,2.0,4.0,97,0.05,,,0.25,meteohub,2013-02-12 14:55:00,
2013-02-12 09:00:00,46.2,45.5,29.97,North,0,2.0,4.0,97,0.05,,,0.25,meteohub,2013-02-12 15:00:00,
2013-02-12 09:05:00,46.2,45.5,29.98,NW,315,2.0,3.0,97,0.05,,,0.25,meteohub,2013-02-12 15:05:00,
2013-02-12 09:10:00,46.2,45.5,29.98,NW,315,2.0,3.0,97,0.05,,,0.26,meteohub,2013-02-12 15:10:00,
2013-02-12 09:15:00,46.2,45.5,29.98,NE,45,2.0,3.0,97,0.05,,,0.26,meteohub,2013-02-12 15:15:00,
2013-02-12 09:20:00,46.4,46.2,29.98,North,0,2.0,3.0,99,0.04,,,0.26,meteohub,2013-02-12 15:20:00,
2013-02-12 09:25:00,46.4,46.2,29.97,NE,45,2.0,3.0,99,0.04,,,0.26,meteohub,2013-02-12 15:25:00,
2013-02-12 09:30:00,46.6,46.4,29.98,North,0,3.0,3.0,99,0.04,,,0.26,meteohub,2013-02-12 15:30:00,
2013-02-12 09:35:00,46.6,46.4,29.98,North,0,3.0,4.0,99,0.04,,,0.26,meteohub,2013-02-12 15:35:00,
2013-02-12 09:40:00,46.6,46.4,29.98,North,0,2.0,4.0,99,0.01,,,0.26,meteohub,2013-02-12 15:40:00,
2013-02-12 09:45:00,46.8,46.6,29.98,NW,315,2.0,4.0,99,0.01,,,0.26,meteohub,2013-02-12 15:45:00,
2013-02-12 09:50:00,46.8,46.6,29.98,North,0,2.0,3.0,99,0.01,,,0.26,meteohub,2013-02-12 15:50:00,
2013-02-12 09:55:00,46.9,46.8,29.98,North,0,2.0,3.0,99,0.01,,,0.26,meteohub,2013-02-12 15:55:00,
2013-02-12 10:00:00,46.9,46.8,29.99,North,0,2.0,2.0,99,0.01,,,0.26,meteohub,2013-02-12 16:00:00,
2013-02-12 10:05:00,47.1,46.9,29.99,North,0,2.0,2.0,99,0.01,,,0.26,meteohub,2013-02-12 16:05:00,
2013-02-12 10:10:00,47.1,46.9,29.99,North,0,2.0,2.0,99,0.00,,,0.26,meteohub,2013-02-12 16:10:00,
2013-02-12 10:15:00,46.9,46.8,29.98,East,90,3.0,3.0,99,0.00,,,0.26,meteohub,2013-02-12 16:15:00,
2013-02-12 10:20:00,46.9,46.8,29.98,East,90,3.0,3.0,99,0.00,,,0.26,meteohub,2013-02-12 16:20:00,
2013-02-12 10:25:00,47.1,46.9,29.98,East,90,5.0,5.0,99,0.00,,,0.26,meteohub,2013-02-12 16:25:00,
2013-02-12 10:30:00,46.8,46.6,29.98,NE,45,4.0,5.0,99,0.00,,,0.26,meteohub,2013-02-12 16:30:00,
2013-02-12 10:35:00,46.9,46.8,29.98,NE,45,3.0,5.0,99,0.00,,,0.26,meteohub,2013-02-12 16:35:00,
2013-02-12 10:40:00,46.9,46.8,29.97,North,0,4.0,5.0,99,0.00,,,0.26,meteohub,2013-02-12 16:40:00,
2013-02-12 10:45:00,47.1,46.9,29.98,NE,45,5.0,5.0,99,0.00,,,0.26,meteohub,2013-02-12 16:45:00,
2013-02-12 10:50:00,46.9,46.8,29.98,NE,45,5.0,6.0,99,0.00,,,0.26,meteohub,2013-02-12 16:50:00,
2013-02-12 10:55:00,46.9,46.8,29.98,SW,225,2.0,6.0,99,0.00,,,0.26,meteohub,2013-02-12 16:55:00,
2013-02-12 11:00:00,47.1,46.9,29.98,NE,45,5.0,6.0,99,0.00,,,0.26,meteohub,2013-02-12 17:00:00,
2013-02-12 11:05:00,47.1,46.9,29.97,NE,45,4.0,8.0,99,0.00,,,0.26,meteohub,2013-02-12 17:05:00,
2013-02-12 11:10:00,47.1,46.9,29.98,NE,45,2.0,8.0,99,0.00,,,0.26,meteohub,2013-02-12 17:10:00,
2013-02-12 11:15:00,47.1,46.9,29.97,NE,45,4.0,8.0,99,0.00,,,0.26,meteohub,2013-02-12 17:15:00,
2013-02-12 11:20:00,47.1,46.9,29.96,East,90,5.0,7.0,99,0.00,,,0.26,meteohub,2013-02-12 17:20:00,
2013-02-12 11:25:00,47.1,46.9,29.97,North,0,4.0,8.0,99,0.00,,,0.26,meteohub,2013-02-12 17:25:00,
2013-02-12 11:31:00,47.5,47.3,29.97,North,0,3.0,8.0,99,0.00,,,0.26,meteohub,2013-02-12 17:31:00,
2013-02-12 11:36:00,47.5,47.3,29.97,North,0,3.0,8.0,99,0.00,,,0.26,meteohub,2013-02-12 17:36:00,
2013-02-12 11:41:00,47.5,47.3,29.97,NE,45,3.0,4.0,99,0.00,,,0.26,meteohub,2013-02-12 17:41:00,
2013-02-12 11:46:00,47.5,47.3,29.97,East,90,3.0,4.0,99,0.00,,,0.26,meteohub,2013-02-12 17:46:00,
2013-02-12 11:51:00,47.5,47.3,29.96,East,90,3.0,6.0,99,0.00,,,0.26,meteohub,2013-02-12 17:51:00,
2013-02-12 11:56:00,47.5,47.3,29.97,East,90,3.0,6.0,99,0.00,,,0.26,meteohub,2013-02-12 17:56:00,
2013-02-12 12:06:00,47.7,47.5,29.96,ENE,68,4.0,4.0,99,0.00,,,0.26,meteohub,2013-02-12 18:06:00,
2013-02-12 12:11:00,47.7,47.5,29.96,North,0,3.0,4.0,99,0.00,,,0.26,meteohub,2013-02-12 18:11:00,
2013-02-12 12:16:00,47.8,47.7,29.96,North,0,2.0,4.0,99,0.00,,,0.26,meteohub,2013-02-12 18:16:00,
2013-02-12 12:21:00,48.0,47.8,29.96,East,90,3.0,4.0,99,0.00,,,0.26,meteohub,2013-02-12 18:21:00,
2013-02-12 12:26:00,47.8,47.3,29.95,North,0,2.0,4.0,98,0.00,,,0.26,meteohub,2013-02-12 18:26:00,
2013-02-12 12:31:00,48.2,47.1,29.95,East,90,2.0,4.0,96,0.00,,,0.26,meteohub,2013-02-12 18:31:00,
2013-02-12 12:36:00,48.4,47.3,29.95,North,0,4.0,4.0,96,0.00,,,0.26,meteohub,2013-02-12 18:36:00,
2013-02-12 12:41:00,48.7,47.7,29.95,North,0,4.0,4.0,96,0.00,,,0.26,meteohub,2013-02-12 18:41:00,
2013-02-12 12:46:00,48.7,47.7,29.95,NE,45,4.0,4.0,96,0.00,,,0.26,meteohub,2013-02-12 18:46:00,
2013-02-12 12:51:00,48.7,47.3,29.95,North,0,4.0,4.0,95,0.00,,,0.26,meteohub,2013-02-12 18:51:00,
2013-02-12 12:56:00,48.7,47.3,29.95,East,90,3.0,4.0,95,0.00,,,0.26,meteohub,2013-02-12 18:56:00,
2013-02-12 13:01:00,48.9,47.5,29.94,North,0,2.0,4.0,95,0.00,,,0.26,meteohub,2013-02-12 19:01:00,
2013-02-12 13:06:00,49.1,47.7,29.94,NW,315,2.0,4.0,95,0.00,,,0.26,meteohub,2013-02-12 19:06:00,
2013-02-12 13:11:00,49.3,47.7,29.94,North,0,4.0,6.0,94,0.00,,,0.26,meteohub,2013-02-12 19:11:00,
2013-02-12 13:16:00,48.9,47.3,29.94,East,90,4.0,6.0,94,0.00,,,0.26,meteohub,2013-02-12 19:16:00,
2013-02-12 13:21:00,48.7,46.8,29.94,North,0,4.0,6.0,93,0.00,,,0.26,meteohub,2013-02-12 19:21:00,
2013-02-12 13:26:00,48.4,46.4,29.94,North,0,4.0,6.0,93,0.00,,,0.26,meteohub,2013-02-12 19:26:00,
2013-02-12 13:31:00,48.2,46.2,29.93,NE,45,2.0,6.0,93,0.00,,,0.26,meteohub,2013-02-12 19:31:00,
2013-02-12 13:36:00,48.2,46.2,29.93,South,180,4.0,6.0,93,0.00,,,0.26,meteohub,2013-02-12 19:36:00,
2013-02-12 13:41:00,48.0,46.6,29.92,North,0,4.0,6.0,95,0.00,,,0.26,meteohub,2013-02-12 19:41:00,
2013-02-12 13:46:00,48.2,46.6,29.93,North,0,4.0,5.0,94,0.00,,,0.26,meteohub,2013-02-12 19:46:00,
2013-02-12 13:51:00,48.0,46.6,29.92,North,0,4.0,5.0,95,0.00,,,0.26,meteohub,2013-02-12 19:51:00,
2013-02-12 13:56:00,48.2,46.6,29.91,North,0,2.0,4.0,94,0.00,,,0.26,meteohub,2013-02-12 19:56:00,
2013-02-12 14:01:00,48.4,46.8,29.91,North,0,2.0,4.0,94,0.00,,,0.26,meteohub,2013-02-12 20:01:00,
2013-02-12 14:06:00,48.4,46.8,29.91,NW,315,4.0,4.0,94,0.00,,,0.26,meteohub,2013-02-12 20:06:00,
2013-02-12 14:11:00,48.4,46.8,29.91,NW,315,3.0,4.0,94,0.00,,,0.26,meteohub,2013-02-12 20:11:00,
2013-02-12 14:16:00,48.4,46.8,29.91,East,90,2.0,4.0,94,0.00,,,0.26,meteohub,2013-02-12 20:16:00,
2013-02-12 14:21:00,48.4,46.8,29.91,East,90,2.0,4.0,94,0.00,,,0.26,meteohub,2013-02-12 20:21:00,
2013-02-12 14:26:00,48.4,46.4,29.91,North,0,3.0,4.0,93,0.00,,,0.26,meteohub,2013-02-12 20:26:00,
2013-02-12 14:31:00,48.6,46.6,29.91,North,0,4.0,4.0,93,0.00,,,0.26,meteohub,2013-02-12 20:31:00,
2013-02-12 14:36:00,48.6,46.6,29.92,North,0,4.0,4.0,93,0.00,,,0.26,meteohub,2013-02-12 20:36:00,
2013-02-12 14:41:00,48.6,46.6,29.91,NW,315,5.0,5.0,93,0.00,,,0.26,meteohub,2013-02-12 20:41:00,
2013-02-12 14:46:00,48.6,46.4,29.91,NW,315,4.0,5.0,92,0.00,,,0.26,meteohub,2013-02-12 20:46:00,
2013-02-12 14:51:00,48.7,46.6,29.91,North,0,3.0,5.0,92,0.00,,,0.26,meteohub,2013-02-12 20:51:00,
2013-02-12 14:56:00,48.6,46.4,29.91,NE,45,2.0,5.0,92,0.00,,,0.26,meteohub,2013-02-12 20:56:00,
2013-02-12 15:01:00,48.7,46.6,29.90,North,0,5.0,5.0,92,0.00,,,0.26,meteohub,2013-02-12 21:01:00,
2013-02-12 15:06:00,48.7,46.6,29.91,North,0,5.0,5.0,92,0.00,,,0.26,meteohub,2013-02-12 21:06:00,
2013-02-12 15:11:00,48.7,46.6,29.91,NW,315,4.0,5.0,92,0.00,,,0.26,meteohub,2013-02-12 21:11:00,
2013-02-12 15:16:00,48.6,46.0,29.92,North,0,4.0,5.0,91,0.00,,,0.26,meteohub,2013-02-12 21:16:00,
2013-02-12 15:21:00,48.6,46.0,29.92,North,0,5.0,8.0,91,0.00,,,0.26,meteohub,2013-02-12 21:21:00,
2013-02-12 15:27:00,48.4,45.9,29.93,West,270,2.0,8.0,91,0.00,,,0.26,meteohub,2013-02-12 21:27:00,
2013-02-12 15:32:00,48.4,45.9,29.92,North,0,3.0,8.0,91,0.00,,,0.26,meteohub,2013-02-12 21:32:00,
2013-02-12 15:37:00,48.2,46.0,29.93,NE,45,3.0,5.0,92,0.00,,,0.26,meteohub,2013-02-12 21:37:00,
2013-02-12 15:42:00,48.0,46.0,29.93,NW,315,7.0,7.0,93,0.00,,,0.26,meteohub,2013-02-12 21:42:00,
2013-02-12 15:47:00,48.0,46.0,29.93,NW,315,3.0,7.0,93,0.00,,,0.26,meteohub,2013-02-12 21:47:00,
2013-02-12 15:52:00,48.0,46.0,29.94,NW,315,5.0,7.0,93,0.00,,,0.26,meteohub,2013-02-12 21:52:00,
2013-02-12 15:57:00,47.8,45.9,29.93,NW,315,2.0,7.0,93,0.00,,,0.26,meteohub,2013-02-12 21:57:00,
2013-02-12 16:02:00,47.8,45.9,29.93,NW,315,5.0,5.0,93,0.00,,,0.26,meteohub,2013-02-12 22:02:00,
2013-02-12 16:07:00,47.8,45.9,29.93,NW,315,5.0,5.0,93,0.00,,,0.26,meteohub,2013-02-12 22:07:00,
2013-02-12 16:12:00,48.2,46.2,29.93,North,0,4.0,5.0,93,0.00,,,0.26,meteohub,2013-02-12 22:12:00,
2013-02-12 16:17:00,48.6,46.6,29.93,NW,315,3.0,5.0,93,0.00,,,0.26,meteohub,2013-02-12 22:17:00,
2013-02-12 16:22:00,48.6,46.6,29.93,NW,315,4.0,7.0,93,0.00,,,0.26,meteohub,2013-02-12 22:22:00,
2013-02-12 16:27:00,48.4,46.2,29.92,NE,45,4.0,7.0,92,0.00,,,0.26,meteohub,2013-02-12 22:27:00,
2013-02-12 16:32:00,48.6,46.4,29.93,NW,315,8.0,8.0,92,0.00,,,0.26,meteohub,2013-02-12 22:32:00,
2013-02-12 16:37:00,48.4,46.2,29.93,NW,315,5.0,9.0,92,0.00,,,0.26,meteohub,2013-02-12 22:37:00,
2013-02-12 16:42:00,48.4,46.2,29.93,NW,315,6.0,9.0,92,0.00,,,0.26,meteohub,2013-02-12 22:42:00,
2013-02-12 16:47:00,48.4,46.2,29.93,North,0,4.0,9.0,92,0.00,,,0.26,meteohub,2013-02-12 22:47:00,
2013-02-12 16:52:00,48.4,46.2,29.93,NW,315,8.0,8.0,92,0.00,,,0.26,meteohub,2013-02-12 22:52:00,
2013-02-12 16:57:00,48.4,45.9,29.93,NW,315,5.0,8.0,91,0.00,,,0.26,meteohub,2013-02-12 22:57:00,
2013-02-12 17:02:00,48.6,46.0,29.93,West,270,3.0,8.0,91,0.00,,,0.26,meteohub,2013-02-12 23:02:00,
2013-02-12 17:07:00,48.6,46.0,29.93,NW,315,6.0,8.0,91,0.00,,,0.26,meteohub,2013-02-12 23:07:00,
2013-02-12 17:12:00,48.4,45.9,29.93,North,0,3.0,6.0,91,0.00,,,0.26,meteohub,2013-02-12 23:12:00,
2013-02-12 17:17:00,48.6,46.0,29.93,North,0,3.0,6.0,91,0.00,,,0.26,meteohub,2013-02-12 23:17:00,
2013-02-12 17:22:00,48.4,45.9,29.94,NW,315,5.0,6.0,91,0.00,,,0.26,meteohub,2013-02-12 23:22:00,
2013-02-12 17:27:00,48.4,45.5,29.93,NW,315,4.0,8.0,90,0.00,,,0.26,meteohub,2013-02-12 23:27:00,
2013-02-12 17:32:00,48.2,45.3,29.93,NW,315,4.0,8.0,90,0.00,,,0.26,meteohub,2013-02-12 23:32:00,
2013-02-12 17:37:00,48.0,45.1,29.94,NW,315,6.0,8.0,90,0.00,,,0.26,meteohub,2013-02-12 23:37:00,
2013-02-12 17:42:00,48.0,45.1,29.93,NW,315,4.0,8.0,90,0.00,,,0.26,meteohub,2013-02-12 23:42:00,
2013-02-12 17:47:00,48.0,45.5,29.94,North,0,7.0,7.0,91,0.00,,,0.26,meteohub,2013-02-12 23:47:00,
2013-02-12 17:52:00,47.8,45.3,29.95,North,0,4.0,7.0,91,0.00,,,0.26,meteohub,2013-02-12 23:52:00,
2013-02-12 17:57:00,47.8,45.0,29.95,North,0,5.0,7.0,90,0.00,,,0.26,meteohub,2013-02-12 23:57:00,
2013-02-12 18:02:00,47.7,45.0,29.95,North,0,4.0,9.0,90,0.00,,,0.26,meteohub,2013-02-13 00:02:00,
2013-02-12 18:07:00,47.7,45.0,29.95,NW,315,4.0,9.0,90,0.00,,,0.26,meteohub,2013-02-13 00:07:00,
2013-02-12 18:12:00,47.7,45.0,29.95,NW,315,6.0,9.0,90,0.00,,,0.26,meteohub,2013-02-13 00:12:00,
2013-02-12 18:17:00,47.7,45.0,29.95,NW,315,7.0,8.0,90,0.00,,,0.26,meteohub,2013-02-13 00:17:00,
2013-02-12 18:22:00,47.7,45.0,29.96,NE,45,3.0,8.0,90,0.00,,,0.26,meteohub,2013-02-13 00:22:00,
2013-02-12 18:27:00,47.7,45.0,29.96,NW,315,4.0,8.0,90,0.00,,,0.26,meteohub,2013-02-13 00:27:00,
2013-02-12 18:32:00,47.7,45.1,29.96,North,0,3.0,7.0,91,0.00,,,0.26,meteohub,2013-02-13 00:32:00,
2013-02-12 18:37:00,47.7,45.1,29.96,North,0,7.0,7.0,91,0.00,,,0.26,meteohub,2013-02-13 00:37:00,
2013-02-12 18:42:00,47.5,45.0,29.96,NNW,338,4.0,7.0,91,0.00,,,0.26,meteohub,2013-02-13 00:42:00,
2013-02-12 18:47:00,47.7,45.1,29.96,NW,315,4.0,7.0,91,0.00,,,0.26,meteohub,2013-02-13 00:47:00,
2013-02-12 18:52:00,47.5,45.0,29.97,NW,315,6.0,7.0,91,0.00,,,0.26,meteohub,2013-02-13 00:52:00,
2013-02-12 18:57:00,47.3,44.8,29.97,NW,315,4.0,7.0,91,0.00,,,0.26,meteohub,2013-02-13 00:57:00,
2013-02-12 19:02:00,47.5,45.0,29.98,NW,315,3.0,8.0,91,0.00,,,0.26,meteohub,2013-02-13 01:02:00,
2013-02-12 19:07:00,47.5,45.0,29.99,NW,315,4.0,8.0,91,0.00,,,0.26,meteohub,2013-02-13 01:07:00,
2013-02-12 19:12:00,47.5,45.0,29.98,NW,315,8.0,8.0,91,0.00,,,0.26,meteohub,2013-02-13 01:12:00,
2013-02-12 19:17:00,47.5,45.0,29.98,North,0,5.0,8.0,91,0.00,,,0.26,meteohub,2013-02-13 01:17:00,
2013-02-12 19:22:00,47.5,45.0,29.99,West,270,5.0,8.0,91,0.00,,,0.26,meteohub,2013-02-13 01:22:00,
2013-02-12 19:27:00,47.3,44.6,29.99,North,0,8.0,8.0,90,0.00,,,0.26,meteohub,2013-02-13 01:27:00,
2013-02-12 19:32:00,47.3,44.6,29.99,NW,315,2.0,8.0,90,0.00,,,0.26,meteohub,2013-02-13 01:32:00,
2013-02-12 19:38:00,47.5,44.8,29.99,NW,315,9.0,9.0,90,0.00,,,0.26,meteohub,2013-02-13 01:38:00,
2013-02-12 19:43:00,47.3,44.6,29.99,NW,315,3.0,9.0,90,0.00,,,0.26,meteohub,2013-02-13 01:43:00,
2013-02-12 19:48:00,47.1,44.4,29.99,NW,315,3.0,9.0,90,0.00,,,0.26,meteohub,2013-02-13 01:48:00,
2013-02-12 19:53:00,46.9,44.2,29.99,SW,225,2.0,9.0,90,0.00,,,0.26,meteohub,2013-02-13 01:53:00,
2013-02-12 19:58:00,46.9,44.4,30.00,North,0,3.0,7.0,91,0.00,,,0.26,meteohub,2013-02-13 01:58:00,
2013-02-12 20:03:00,46.8,44.2,30.00,NW,315,4.0,7.0,91,0.00,,,0.26,meteohub,2013-02-13 02:03:00,
2013-02-12 20:08:00,46.8,44.2,30.00,North,0,3.0,7.0,91,0.00,,,0.26,meteohub,2013-02-13 02:08:00,
2013-02-12 20:13:00,46.6,44.4,30.00,North,0,3.0,7.0,92,0.00,,,0.26,meteohub,2013-02-13 02:13:00,
2013-02-12 20:18:00,46.6,44.4,30.00,NNW,338,4.0,7.0,92,0.00,,,0.26,meteohub,2013-02-13 02:18:00,
2013-02-12 20:23:00,46.6,44.4,30.01,NW,315,5.0,5.0,92,0.00,,,0.26,meteohub,2013-02-13 02:23:00,
2013-02-12 20:28:00,46.6,44.4,30.01,NW,315,4.0,5.0,92,0.00,,,0.26,meteohub,2013-02-13 02:28:00,
2013-02-12 20:33:00,46.4,44.2,30.01,North,0,5.0,5.0,92,0.00,,,0.26,meteohub,2013-02-13 02:33:00,
2013-02-12 20:38:00,46.4,44.4,30.01,NW,315,4.0,5.0,93,0.00,,,0.26,meteohub,2013-02-13 02:38:00,
2013-02-12 20:43:00,46.6,44.6,30.02,NW,315,3.0,6.0,93,0.00,,,0.26,meteohub,2013-02-13 02:43:00,
2013-02-12 20:48:00,46.6,44.6,30.02,NW,315,5.0,8.0,93,0.00,,,0.26,meteohub,2013-02-13 02:48:00,
2013-02-12 20:52:00,46.8,44.8,30.01,NE,45,4.0,8.0,93,0.00,,,0.26,meteohub,2013-02-13 02:52:00,
2013-02-12 20:57:00,46.8,44.8,30.02,NNW,338,6.0,8.0,93,0.00,,,0.26,meteohub,2013-02-13 02:57:00,
2013-02-12 21:02:00,46.8,44.8,30.02,NW,315,9.0,9.0,93,0.00,,,0.26,meteohub,2013-02-13 03:02:00,
2013-02-12 21:07:00,46.8,44.6,30.02,NW,315,8.0,9.0,92,0.00,,,0.26,meteohub,2013-02-13 03:07:00,
2013-02-12 21:12:00,46.2,43.7,30.03,NW,315,14.0,14.0,91,0.00,,,0.26,meteohub,2013-02-13 03:12:00,
2013-02-12 21:17:00,45.9,43.3,30.03,NW,315,15.0,15.0,91,0.00,,,0.26,meteohub,2013-02-13 03:17:00,
2013-02-12 21:22:00,45.5,43.0,30.03,North,0,12.0,16.0,91,0.00,,,0.26,meteohub,2013-02-13 03:22:00,
2013-02-12 21:27:00,45.3,42.8,30.04,NE,45,8.0,16.0,91,0.00,,,0.26,meteohub,2013-02-13 03:27:00,
2013-02-12 21:32:00,45.0,42.4,30.04,NW,315,8.0,16.0,91,0.00,,,0.26,meteohub,2013-02-13 03:32:00,
2013-02-12 21:37:00,44.6,42.1,30.04,North,0,13.0,15.0,91,0.00,,,0.26,meteohub,2013-02-13 03:37:00,
2013-02-12 21:42:00,44.2,42.1,30.04,North,0,8.0,17.0,92,0.00,,,0.26,meteohub,2013-02-13 03:42:00,
2013-02-12 21:47:00,43.9,41.7,30.05,NW,315,13.0,17.0,92,0.00,,,0.26,meteohub,2013-02-13 03:47:00,
2013-02-12 21:52:00,43.9,41.7,30.05,NW,315,11.0,18.0,92,0.00,,,0.26,meteohub,2013-02-13 03:52:00,
2013-02-12 21:57:00,43.9,41.7,30.05,NW,315,8.0,18.0,92,0.00,,,0.26,meteohub,2013-02-13 03:57:00,
2013-02-12 22:02:00,43.9,41.4,30.05,NW,315,10.0,18.0,91,0.00,,,0.26,meteohub,2013-02-13 04:02:00,
2013-02-12 22:07:00,43.9,41.4,30.06,NW,315,10.0,18.0,91,0.00,,,0.26,meteohub,2013-02-13 04:07:00,
2013-02-12 22:12:00,43.7,41.0,30.06,WNW,293,11.0,11.0,90,0.00,,,0.26,meteohub,2013-02-13 04:12:00,
2013-02-12 22:17:00,43.5,40.8,30.06,North,0,11.0,12.0,90,0.00,,,0.26,meteohub,2013-02-13 04:17:00,
2013-02-12 22:22:00,43.3,40.3,30.06,NW,315,13.0,13.0,89,0.00,,,0.26,meteohub,2013-02-13 04:22:00,
2013-02-12 22:27:00,43.2,40.1,30.07,NW,315,11.0,13.0,89,0.00,,,0.26,meteohub,2013-02-13 04:27:00,
2013-02-12 22:32:00,43.2,40.1,30.07,NW,315,11.0,13.0,89,0.00,,,0.26,meteohub,2013-02-13 04:32:00,
2013-02-12 22:37:00,43.0,39.9,30.07,NW,315,11.0,15.0,89,0.00,,,0.26,meteohub,2013-02-13 04:37:00,
2013-02-12 22:42:00,43.0,39.9,30.07,NW,315,5.0,15.0,89,0.00,,,0.26,meteohub,2013-02-13 04:42:00,
2013-02-12 22:47:00,42.8,39.7,30.07,West,270,8.0,15.0,89,0.00,,,0.26,meteohub,2013-02-13 04:47:00,
2013-02-12 22:52:00,42.8,39.7,30.07,NW,315,8.0,17.0,89,0.00,,,0.26,meteohub,2013-02-13 04:52:00,
2013-02-12 22:57:00,42.6,39.6,30.08,NW,315,9.0,17.0,89,0.00,,,0.26,meteohub,2013-02-13 04:57:00,
2013-02-12 23:00:00,42.4,39.4,30.08,NW,315,10.0,17.0,89,0.00,,,0.26,meteohub,2013-02-13 05:00:00,
2013-02-12 23:05:00,42.3,39.0,30.08,NW,315,7.0,12.0,88,0.00,,,0.26,meteohub,2013-02-13 05:05:00,
2013-02-12 23:10:00,42.3,38.7,30.08,NW,315,6.0,12.0,87,0.00,,,0.26,meteohub,2013-02-13 05:10:00,
2013-02-12 23:15:00,42.3,38.7,30.08,NNW,338,10.0,13.0,87,0.00,,,0.26,meteohub,2013-02-13 05:15:00,
2013-02-12 23:20:00,42.1,38.5,30.08,West,270,8.0,15.0,87,0.00,,,0.26,meteohub,2013-02-13 05:20:00,
2013-02-12 23:25:00,41.9,38.3,30.09,North,0,6.0,15.0,87,0.00,,,0.26,meteohub,2013-02-13 05:25:00,
2013-02-12 23:30:00,41.7,38.1,30.09,WNW,293,9.0,15.0,87,0.00,,,0.26,meteohub,2013-02-13 05:30:00,
2013-02-12 23:35:00,41.7,38.1,30.09,NW,315,15.0,15.0,87,0.00,,,0.26,meteohub,2013-02-13 05:35:00,
2013-02-12 23:40:00,41.7,38.1,30.09,NW,315,5.0,15.0,87,0.00,,,0.26,meteohub,2013-02-13 05:40:00,
2013-02-12 23:45:00,41.7,38.1,30.09,NW,315,10.0,15.0,87,0.00,,,0.26,meteohub,2013-02-13 05:45:00,
2013-02-12 23:50:00,41.7,37.8,30.10,North,0,11.0,15.0,86,0.00,,,0.26,meteohub,2013-02-13 05:50:00,
2013-02-12 23:55:00,41.5,37.6,30.10,NNW,338,5.0,13.0,86,0.00,,,0.26,meteohub,2013-02-13 05:55:00,